sat.trackr.live / text

‹ back to catalog

STARLINK-37439

NORAD 69377 · 2026-123AA

PAYLOAD ACTIVE UNKNOWN

§ Identity

Operator
Country
US
Launch date
2026-06-04
Launch site
AFETR
Launch vehicle
Mass (kg)
RCS (m²)

Purposes: comms

External: N2YO · Heavens-Above · Gunter

§ Orbital elements

Epoch: 2026-09-19T22:44:03.849792Z

Period
93.79 min
Inclination
53.1588°
Eccentricity
0.0000998
Mean motion
15.35415042 rev/d
Perigee alt
459.0 km
Apogee alt
460.4 km
Semi-major
6,837.8 km
B*
6.1764e-4
RAAN
144.3960°
Arg perigee
88.1696°
Mean anomaly
271.9421°
Rev number
1,678

§ Raw data

STARLINK-374391 69377U 26123AA  26262.94726678  .00021235  00000+0  61764-3 0  99922 69377  53.1588 144.3960 0000998  88.1696 271.9421 15.35415042 16783

JSON: /api/v1/satellites/69377 · /tle

For live sub-satellite position, see the globe view (requires WebGL).

§ Visibility from observer

Set your observer location to see the next 7 days of passes ≥ 10°. The values pass through the URL so the page stays shareable.

No JS? Fill the form by hand. The geolocation button needs JavaScript.